Wind_Speed
6 7 10 6 5 8 6 6 7 7 8 9 10 10 10 12 13 14 15 16 17 17 16 16 17 18 17 17 16 16 15 15 16 16 18 18 20 19 19 23 22 25 26 28 27
5 4 5 1 8 7 8 8 8 8 9 10 12 12 13 14 16 17 19 19 19 19 19 20 20 20 20 18 18 18 19 19 20 20 20 21 22 23 22 22 28 29 30 31 32
7 5 3 5 8 10 11 12 13 12 12 13 14 14 16 18 19 20 21 21 22 22 22 21 21 20 19 19 20 22 22 22 23 24 24 24 24 25 26 28 31 30 32 35 37
8 10 9 9 12 14 15 17 18 18 17 17 18 19 21 22 23 23 24 24 24 24 23 22 21 21 19 21 22 24 25 24 25 25 25 26 27 28 29 30 30 31 32 35 39
11 10 12 15 16 18 20 21 21 21 22 22 22 23 25 27 27 27 28 27 26 25 24 22 22 22 23 23 22 24 26 26 25 27 27 27 29 28 32 31 30 32 35 36 40
13 13 14 14 17 22 25 26 26 27 27 27 27 28 28 30 29 30 29 28 27 26 26 25 24 23 24 26 24 24 22 24 26 28 27 27 28 29 30 30 31 35 38 40 43
15 17 19 20 19 20 23 26 29 30 30 31 32 32 32 31 32 30 28 27 27 27 27 26 25 25 25 27 24 24 23 27 27 30 31 34 29 32 31 34 37 40 41 43 46
16 19 21 22 22 25 25 27 29 30 30 32 32 32 32 31 29 28 28 27 27 28 27 26 25 26 25 25 26 26 28 28 31 34 37 39 36 37 42 46 48 47 46 44 49
19 21 25 27 24 21 25 28 29 29 29 28 28 28 28 27 26 27 27 28 28 28 27 25 24 26 28 28 30 31 33 34 36 39 43 45 46 45 49 50 50 52 52 52 54
23 26 29 30 25 24 24 22 26 28 25 25 26 24 24 26 26 27 27 27 26 26 26 24 27 30 32 33 35 37 39 41 42 45 49 50 49 51 53 54 55 57 59 62 64
26 29 30 31 26 25 26 24 20 22 23 22 22 22 23 24 24 24 25 24 25 24 25 29 31 34 37 39 41 44 45 47 48 50 55 52 50 50 55 56 59 60 62 66 68
27 28 29 28 27 25 24 23 22 21 20 22 20 19 19 18 19 20 22 24 26 29 31 33 36 38 40 42 43 45 49 52 54 55 56 56 54 56 57 59 63 65 67 69 71
27 29 29 28 23 24 24 23 22 21 19 19 19 21 20 21 22 23 25 27 29 32 36 37 39 41 43 47 51 53 55 55 58 58 58 61 59 61 61 61 65 68 70 71 72
30 29 29 28 25 21 20 21 23 23 21 21 22 20 23 25 25 27 29 32 35 36 38 40 43 46 50 52 51 54 56 58 59 62 63 66 74 66 68 69 69 71 72 72 72
30 31 30 29 27 23 21 21 22 22 25 22 23 25 26 28 32 33 35 36 37 39 42 44 47 49 53 53 54 59 60 62 63 64 66 69 74 72 72 73 71 76 75 75 72
32 32 32 30 28 25 24 25 25 25 26 24 26 30 32 35 36 37 38 39 40 42 45 47 48 54 56 57 60 61 63 64 64 66 70 70 74 77 75 73 73 71 72 71 68
32 32 32 32 30 28 27 28 28 27 29 31 34 36 36 34 35 38 40 43 47 49 49 50 52 55 58 59 60 62 66 70 70 70 70 69 73 73 69 68 66 65 61 55 50
35 35 34 32 31 30 29 30 31 31 33 36 36 36 37 36 40 44 46 50 52 53 54 57 60 62 63 65 66 67 70 68 73 75 78 75 75 69 65 62 53 49 44 35 31
36 36 36 34 32 31 31 31 33 34 34 35 37 40 42 44 47 49 52 56 56 57 59 62 63 65 66 66 67 68 67 68 68 71 70 70 65 63 54 47 39 29 31 34 37
41 39 36 33 32 32 33 34 34 33 36 38 38 44 47 49 52 54 56 58 61 62 63 65 68 71 72 73 70 69 68 66 64 65 65 64 59 48 47 42 36 35 35 33 34
42 39 35 33 32 31 33 34 35 36 40 43 44 47 51 54 55 57 58 60 61 62 63 64 70 71 72 69 66 65 61 58 58 56 54 53 54 52 47 36 41 38 37 38 37
39 37 33 31 32 31 34 36 40 43 44 47 50 54 57 58 57 59 60 62 66 66 67 69 72 72 69 63 58 57 56 50 50 51 53 53 55 49 44 41 42 52 52 47 46
35 34 32 32 35 37 38 41 44 47 49 53 56 58 61 61 61 64 65 67 68 70 71 71 69 70 69 60 57 51 43 47 49 48 48 47 50 41 38 36 37 37 41 42 38
33 36 36 38 39 41 44 47 49 51 54 56 58 59 59 59 63 67 68 70 69 69 71 70 68 61 59 54 51 48 45 45 46 49 44 43 39 31 33 36 37 36 33 34 37
35 37 40 42 43 45 47 51 54 55 57 58 60 62 64 67 68 68 70 70 69 68 64 63 61 56 53 47 49 49 47 42 41 36 35 30 32 29 31 31 31 29 30 30 27
38 40 41 43 46 49 52 55 53 55 57 58 62 66 66 67 69 70 74 72 71 66 55 54 54 53 51 45 47 46 42 33 29 28 27 28 21 23 26 24 23 23 23 24 25
42 44 48 50 52 54 54 54 56 59 63 63 63 65 67 70 73 73 74 71 68 60 53 52 52 53 51 45 44 42 30 28 20 24 25 18 16 16 19 23 25 26 28 28 28
Wind_Direction
262 309 328 322 202 218 250 271 289 270 257 261 271 282 280 280 283 287 291 296 301 305 306 306 308 306 302 300 295 289 286 289 288 283 287 286 286 284 283 284 282 282 284 284 286
260 297 331 155 180 231 263 274 296 280 277 276 277 282 282 284 288 292 294 298 302 304 303 303 304 301 299 298 294 292 293 293 289 288 284 282 282 284 282 276 279 282 284 286 285
267 259 271 219 217 248 273 280 286 286 282 280 281 283 286 289 292 294 296 299 300 299 300 299 297 295 295 297 298 297 295 294 292 288 286 284 284 281 280 286 283 288 290 291 291
311 272 257 251 250 254 261 271 282 289 286 283 283 286 289 292 294 294 295 296 296 296 295 296 294 294 293 294 294 294 293 291 287 284 283 285 284 284 287 282 289 292 292 292 292
356 340 290 272 269 270 272 275 279 281 282 283 284 287 290 291 292 293 294 296 295 294 292 293 293 295 295 294 292 289 290 290 288 288 290 287 287 289 286 289 291 291 290 289 288
350 340 326 312 296 282 277 278 280 281 282 283 285 287 288 289 291 293 294 295 293 293 295 297 296 296 293 292 290 287 285 284 286 286 284 280 281 281 282 287 290 289 287 287 284
334 331 322 309 299 291 286 283 281 280 280 282 283 285 287 290 291 293 293 294 294 294 296 296 295 292 290 288 288 283 286 288 287 286 285 287 282 279 282 283 281 284 285 283 279
339 338 336 337 307 289 288 284 281 279 280 282 283 285 286 288 289 290 290 291 292 292 294 295 293 290 287 286 287 288 290 291 295 297 297 295 294 290 289 290 291 291 288 283 279
341 345 342 336 323 315 294 289 284 282 279 281 284 285 285 286 287 287 288 290 290 291 292 290 287 287 289 294 294 296 298 301 303 302 299 300 303 300 297 297 297 294 290 286 282
334 335 337 338 325 316 310 302 291 285 281 283 285 286 287 287 287 287 287 286 286 287 288 289 294 295 297 298 298 299 300 302 305 302 300 303 306 303 299 297 295 293 292 291 289
328 331 336 336 327 319 315 310 301 291 287 289 292 294 290 289 289 288 288 287 288 287 291 297 298 298 299 300 302 303 305 305 306 304 302 302 300 295 291 291 287 285 283 281 282
329 330 334 337 328 324 320 313 308 305 303 303 304 305 303 299 295 291 291 293 294 295 300 301 300 302 302 304 304 304 303 305 303 301 298 298 300 294 290 288 285 281 278 277 278
325 330 333 336 328 324 321 317 315 312 314 310 309 307 304 302 301 298 300 299 300 302 304 305 305 305 307 306 305 305 304 302 301 299 296 295 296 294 290 285 283 282 281 281 281
320 326 330 332 328 319 314 310 307 304 305 306 307 300 302 301 299 301 302 303 304 304 305 306 306 308 305 306 307 303 300 301 300 298 296 296 299 298 294 292 289 286 284 282 280
320 322 325 326 322 315 311 307 304 305 304 304 303 302 298 300 301 303 302 302 304 305 306 307 308 307 308 307 305 302 301 299 298 296 296 295 291 297 293 290 288 287 285 284 284
316 317 319 320 316 309 303 302 302 304 304 303 303 303 303 302 305 304 304 307 307 307 309 309 307 307 307 305 303 301 298 296 296 295 294 294 291 292 291 292 288 285 283 282 282
315 315 316 315 312 305 298 295 298 299 302 305 305 304 305 308 305 305 309 310 310 313 311 310 307 306 306 305 304 303 301 298 296 294 294 292 289 293 294 291 291 291 289 287 285
311 311 312 310 305 300 294 294 295 298 301 303 303 305 307 309 310 313 313 312 314 311 312 312 311 310 310 308 306 302 301 298 300 301 300 299 298 299 297 297 296 294 292 285 278
315 312 311 308 303 299 296 295 298 301 301 301 305 308 312 312 312 313 313 313 313 313 312 311 312 310 308 305 303 302 298 298 298 299 297 300 301 295 299 298 301 289 283 276 273
311 313 309 307 303 299 299 300 301 303 303 304 307 309 311 312 311 312 313 314 312 312 312 310 310 310 309 305 304 304 304 304 304 302 301 303 299 301 294 299 290 284 283 278 275
304 306 305 304 303 304 303 302 303 306 307 309 310 311 312 312 312 313 312 310 309 307 307 304 305 308 305 303 302 301 300 299 297 296 299 298 297 296 293 284 268 266 273 270 271
306 305 304 304 304 307 307 308 309 310 310 311 311 313 312 313 312 310 310 308 309 308 304 302 301 301 301 301 303 303 302 304 300 300 296 295 296 295 293 290 280 272 273 272 272
305 305 304 305 307 309 310 311 310 310 312 312 312 312 312 311 309 310 309 308 307 303 302 303 302 302 301 302 302 301 305 302 297 297 299 294 300 299 298 292 286 281 273 274 275
306 308 307 307 309 308 309 309 309 309 309 310 309 308 309 307 307 307 306 304 303 302 302 302 302 303 304 307 305 303 303 302 297 297 297 302 302 305 297 288 288 290 289 283 274
304 306 306 306 306 306 307 308 308 309 309 309 309 309 308 308 305 303 303 303 303 304 303 303 302 302 304 306 302 305 306 302 296 301 299 311 303 297 295 294 296 295 290 289 286
299 302 302 303 305 305 305 306 305 306 309 308 307 307 303 301 301 300 300 302 302 301 304 301 304 302 303 305 302 305 305 298 299 299 303 306 301 287 296 303 299 294 289 285 287
297 300 301 301 303 304 305 305 306 308 310 307 306 304 303 302 302 301 300 301 303 304 302 302 303 302 306 303 303 307 299 294 295 305 306 305 298 305 299 296 293 292 291 292 283
Height
5894 5894 5893 5891 5892 5894 5895 5895 5895 5894 5894 5894 5894 5894 5893 5892 5891 5890 5889 5889 5887 5886 5885 5883 5882 5880 5878 5877 5876 5874 5873 5872 5871 5870 5867 5866 5864 5864 5863 5861 5860 5857 5856 5854 5855
5893 5893 5893 5892 5893 5893 5894 5894 5893 5893 5893 5892 5892 5892 5891 5889 5888 5887 5886 5885 5884 5883 5882 5880 5879 5877 5875 5874 5872 5871 5870 5869 5867 5865 5864 5863 5861 5860 5860 5858 5854 5852 5851 5849 5848
5891 5892 5892 5892 5892 5892 5892 5892 5892 5891 5891 5890 5890 5889 5888 5886 5886 5884 5883 5882 5880 5879 5878 5876 5874 5873 5871 5870 5868 5867 5866 5865 5863 5861 5859 5857 5856 5856 5855 5852 5849 5850 5849 5845 5843
5891 5891 5891 5891 5890 5890 5890 5889 5889 5888 5888 5887 5887 5886 5884 5883 5883 5880 5879 5878 5876 5874 5873 5872 5871 5869 5868 5866 5865 5862 5860 5859 5857 5856 5854 5852 5850 5849 5848 5846 5846 5844 5843 5841 5836
5890 5889 5889 5889 5888 5887 5886 5885 5885 5884 5884 5884 5883 5882 5881 5879 5878 5876 5874 5873 5871 5869 5868 5867 5866 5864 5863 5861 5860 5858 5855 5853 5852 5850 5850 5848 5846 5846 5840 5840 5839 5836 5834 5833 5829
5888 5887 5887 5886 5885 5884 5883 5882 5881 5880 5879 5879 5878 5878 5877 5874 5873 5870 5869 5867 5866 5864 5863 5862 5861 5860 5857 5854 5854 5852 5851 5848 5846 5844 5843 5842 5840 5837 5835 5832 5831 5828 5826 5825 5821
5886 5885 5884 5882 5880 5879 5878 5876 5875 5875 5874 5873 5872 5871 5871 5870 5867 5865 5864 5862 5861 5859 5858 5856 5855 5853 5851 5848 5847 5845 5845 5841 5839 5836 5835 5833 5835 5829 5829 5826 5823 5821 5818 5814 5811
5884 5882 5880 5878 5875 5874 5872 5870 5869 5868 5867 5866 5865 5864 5863 5863 5861 5860 5858 5857 5855 5854 5852 5850 5848 5846 5843 5842 5840 5839 5838 5836 5833 5830 5827 5825 5827 5824 5819 5815 5812 5809 5807 5804 5796
5880 5878 5876 5872 5870 5867 5866 5864 5862 5861 5860 5859 5859 5858 5858 5856 5855 5854 5853 5851 5849 5847 5846 5844 5842 5839 5837 5836 5834 5831 5829 5827 5826 5821 5817 5815 5814 5812 5805 5800 5798 5793 5789 5787 5782
5876 5874 5871 5867 5864 5861 5859 5857 5855 5854 5854 5853 5853 5854 5852 5851 5849 5848 5847 5845 5844 5841 5840 5839 5837 5833 5830 5828 5826 5823 5820 5819 5816 5812 5805 5803 5803 5795 5789 5784 5781 5775 5770 5764 5760
5872 5869 5866 5862 5859 5856 5853 5852 5852 5851 5848 5848 5848 5847 5846 5845 5844 5842 5840 5839 5838 5837 5836 5834 5831 5826 5823 5820 5816 5813 5810 5806 5804 5799 5792 5792 5790 5786 5776 5772 5767 5764 5757 5749 5745
5868 5865 5861 5858 5854 5852 5850 5847 5846 5845 5845 5843 5842 5841 5840 5839 5838 5837 5836 5834 5832 5830 5828 5826 5821 5817 5813 5810 5807 5803 5798 5796 5791 5785 5777 5775 5775 5768 5763 5758 5750 5744 5737 5734 5728
5862 5859 5856 5853 5850 5847 5845 5844 5843 5842 5841 5840 5839 5838 5836 5835 5832 5831 5830 5828 5825 5823 5819 5815 5811 5805 5803 5798 5794 5789 5783 5778 5773 5769 5763 5756 5758 5752 5747 5740 5731 5725 5719 5713 5711
5856 5854 5851 5849 5847 5844 5842 5840 5838 5837 5837 5836 5834 5832 5831 5829 5828 5826 5824 5821 5817 5814 5811 5806 5800 5796 5790 5785 5781 5775 5768 5763 5757 5750 5745 5735 5725 5736 5725 5718 5714 5706 5699 5694 5691
5850 5848 5846 5842 5841 5839 5837 5834 5833 5833 5831 5831 5828 5825 5823 5822 5819 5817 5815 5812 5809 5805 5801 5796 5789 5783 5777 5772 5767 5758 5752 5747 5742 5736 5726 5723 5708 5710 5707 5698 5696 5684 5682 5675 5669
5844 5841 5839 5837 5835 5833 5831 5829 5828 5828 5824 5824 5821 5819 5816 5813 5811 5808 5805 5802 5797 5793 5790 5785 5778 5771 5764 5758 5752 5744 5737 5731 5724 5718 5711 5705 5689 5688 5683 5677 5669 5668 5662 5657 5655
5837 5834 5833 5830 5829 5826 5824 5823 5822 5820 5818 5816 5812 5810 5807 5806 5802 5798 5794 5789 5784 5781 5777 5774 5765 5758 5752 5745 5736 5726 5716 5705 5703 5698 5694 5685 5669 5663 5659 5654 5648 5643 5640 5639 5637
5831 5827 5825 5823 5821 5818 5816 5816 5814 5812 5809 5805 5803 5800 5798 5796 5791 5787 5782 5777 5774 5768 5762 5756 5750 5741 5734 5725 5718 5708 5697 5683 5671 5666 5661 5665 5650 5645 5638 5635 5631 5626 5624 5623 5623
5823 5820 5817 5815 5813 5811 5809 5807 5806 5804 5802 5798 5794 5790 5788 5784 5779 5775 5768 5763 5758 5753 5748 5740 5736 5725 5716 5708 5701 5696 5682 5670 5657 5654 5639 5639 5640 5626 5624 5620 5617 5615 5613 5611 5611
5815 5812 5809 5807 5805 5803 5802 5800 5798 5796 5793 5789 5787 5783 5778 5774 5769 5763 5757 5751 5742 5737 5730 5723 5717 5711 5699 5687 5681 5673 5661 5653 5645 5631 5622 5624 5618 5615 5609 5607 5606 5604 5604 5602 5600
5806 5804 5801 5799 5797 5796 5794 5792 5790 5788 5784 5781 5777 5772 5767 5762 5758 5752 5745 5737 5730 5723 5716 5707 5700 5702 5688 5675 5665 5660 5653 5643 5637 5624 5613 5608 5607 5606 5602 5599 5596 5592 5590 5591 5590
5796 5795 5793 5791 5789 5788 5786 5784 5781 5777 5773 5769 5765 5760 5754 5749 5744 5737 5731 5722 5714 5707 5699 5690 5679 5676 5676 5662 5653 5644 5635 5628 5616 5616 5608 5597 5594 5595 5589 5585 5582 5580 5576 5578 5577
5786 5784 5783 5781 5779 5777 5775 5773 5769 5766 5762 5757 5752 5747 5741 5736 5729 5723 5715 5707 5698 5689 5679 5671 5661 5652 5651 5651 5641 5632 5628 5618 5606 5600 5597 5585 5582 5581 5578 5574 5571 5567 5565 5565 5567
5776 5775 5774 5772 5770 5766 5763 5760 5756 5753 5749 5744 5739 5733 5728 5722 5714 5708 5702 5692 5680 5670 5660 5652 5644 5638 5631 5628 5619 5620 5617 5609 5596 5588 5583 5582 5573 5576 5570 5565 5562 5558 5556 5555 5556
5767 5766 5763 5761 5759 5756 5752 5749 5745 5740 5737 5732 5725 5719 5714 5708 5700 5690 5681 5674 5666 5654 5644 5636 5629 5624 5623 5617 5609 5603 5599 5596 5587 5581 5575 5575 5569 5565 5560 5557 5555 5552 5549 5548 5546
5757 5756 5754 5750 5747 5744 5740 5737 5732 5727 5723 5718 5712 5705 5698 5691 5682 5676 5666 5657 5652 5640 5631 5621 5615 5608 5610 5605 5596 5594 5589 5581 5578 5574 5571 5567 5565 5559 5556 5553 5549 5546 5543 5542 5541
5746 5744 5742 5740 5735 5732 5728 5723 5718 5713 5708 5701 5694 5688 5681 5674 5664 5654 5646 5639 5629 5624 5616 5611 5604 5596 5595 5593 5587 5586 5578 5574 5571 5568 5565 5562 5559 5557 5553 5549 5545 5541 5538 5536 5534